Flag for Brunei Weather past 2 weeks in Bandar Seri Begawan, Brunei

Now
77 °F

Partly sunny.


Feels Like: 78 °F
Forecast: 77 / 85 °F
Wind: 7 mph from South

Location: Brunei Airport

Current Time: Aug 1, 2015 at 7:59:45 AM

Latest Report: Aug 1, 2015 at 7:30 AM


Visibility: N/A

Pressure: 29.89 "Hg

Humidity: 94%

Dew point: 75 °F

Location of Bandar Seri BegawanLocation

Historic Weather in Bandar Seri Begawan — Graph

°F

Bandar Seri Begawan temperature yesterday

Maximum temperature yesterday: 86 °F (at 10:00 AM)
Minimum temperature yesterday: 75 °F (at 2:00 AM)
Average temperature yesterday: 79 °F

Past Weeks' High & Low Weather Summary

 TemperatureHumidityPressure
High91 °F (Jul 17, 11:30 AM)100% (Jul 20, 11:00 PM)29.98 "Hg (Jul 20, 11:00 PM)
Low75 °F (Jul 20, 11:00 PM)56% (Jul 23, 12:30 PM)29.74 "Hg (Jul 17, 4:30 PM)
Average82 °F84%29.87 "Hg
* Reported Jul 17 6:00 AM — Aug 1 6:30 AM, Bandar Seri Begawan, Weather by CustomWeather, © 2015

Note: Actual official high and low records may vary slightly from our data, if they occured in-between our weather recording intervals... More about our weather records

Advertising

Bandar Seri Begawan weather history for previous 24 hours

 ConditionsComfort  
Time TempWeatherWind HumidityBarometerVisibility
6:30 AM
Sat, Aug 1
75 °FPartly sunny.6 mph94%29.86 "HgN/A
5:30 AM75 °FPartly cloudy.5 mph94%29.83 "HgN/A
5:00 AM75 °FPartly cloudy.7 mph100%29.83 "HgN/A
4:30 AM75 °FPartly cloudy.5 mph100%29.83 "HgN/A
4:00 AM75 °FPassing clouds.6 mph100%29.83 "HgN/A
3:30 AM75 °FPassing clouds.5 mph100%29.86 "HgN/A
3:00 AM75 °FPassing clouds.3 mph100%29.86 "HgN/A
2:30 AM75 °FPassing clouds.2 mph100%29.86 "HgN/A
2:00 AM75 °FLight rain. Passing clouds.7 mph100%29.86 "HgN/A
1:30 AM75 °FLight rain. Passing clouds.3 mph100%29.86 "Hg5 mi
1:00 AM75 °FLight rain. Passing clouds.2 mph100%29.89 "Hg5 mi
12:30 AM75 °FLight rain. Passing clouds.3 mph100%29.89 "Hg3 mi
12:00 AM75 °FLight rain. Passing clouds.2 mph100%29.92 "Hg3 mi
11:30 PM
Fri, Jul 31
75 °FRain. Passing clouds.3 mph100%29.92 "Hg2 mi
11:00 PM75 °FLight rain. Passing clouds.3 mph100%29.92 "Hg5 mi
10:30 PM77 °FLight rain. Passing clouds.3 mph94%29.92 "HgN/A
10:00 PM77 °FLight rain. Passing clouds.5 mph94%29.89 "HgN/A
9:30 PM77 °FLight rain. Passing clouds.3 mph94%29.89 "HgN/A
9:00 PM77 °FLight rain. Passing clouds.5 mph94%29.89 "HgN/A
8:30 PM77 °FLight rain. Passing clouds.7 mph94%29.86 "HgN/A
8:00 PM77 °FLight rain. Partly cloudy.7 mph100%29.86 "Hg6 mi
7:30 PM77 °FLight rain. Partly cloudy.6 mph100%29.86 "Hg6 mi
7:00 PM77 °FLight rain. Partly cloudy.7 mph100%29.86 "Hg5 mi
6:30 PM79 °FSprinkles. Broken clouds.7 mph94%29.83 "Hg5 mi
6:00 PM81 °FSprinkles. Broken clouds.7 mph89%29.80 "Hg6 mi
5:30 PM82 °FBroken clouds.7 mph84%29.80 "Hg6 mi
5:00 PM82 °FBroken clouds.7 mph84%29.80 "HgN/A
4:30 PM82 °FSprinkles. Broken clouds.7 mph89%29.80 "Hg4 mi
4:00 PM84 °FSprinkles. Broken clouds.10 mph79%29.80 "Hg1 mi
3:30 PM84 °FScattered showers. Broken clouds.9 mph79%29.80 "Hg5 mi
3:00 PM84 °FScattered showers. Broken clouds.8 mph79%29.80 "Hg4 mi
2:30 PM84 °FScattered showers. Broken clouds.8 mph79%29.83 "Hg4 mi
2:00 PM84 °FLight rain. Broken clouds.7 mph84%29.83 "Hg5 mi
1:30 PM82 °FLight rain. Broken clouds.3 mph89%29.83 "Hg5 mi
1:00 PM82 °FLight rain. Broken clouds.2 mph89%29.86 "Hg4 mi
12:30 PM77 °FThunderstorms. Broken clouds.6 mph94%29.86 "Hg2 mi
12:00 PM77 °FStrong thunderstorms. Broken clouds.7 mph94%29.89 "Hg1 mi
11:30 AM79 °FRain showers. Broken clouds.8 mph94%29.89 "Hg2 mi
11:00 AM86 °FScattered showers. Broken clouds.6 mph70%29.86 "Hg5 mi
10:00 AM86 °FBroken clouds.3 mph75%29.89 "HgN/A
9:30 AM84 °FPartly sunny.3 mph79%29.89 "HgN/A
9:00 AM82 °FPartly sunny.6 mph84%29.89 "HgN/A
8:30 AM81 °FPartly sunny.7 mph89%29.86 "HgN/A
8:00 AM79 °FBroken clouds.5 mph94%29.86 "HgN/A
7:30 AM77 °FBroken clouds.3 mph94%29.86 "HgN/A
7:00 AM77 °FBroken clouds.3 mph94%29.83 "HgN/A
Weather by CustomWeather, © 2015

See weather overviewHow to use our weather pages